Location: Kellogg
(38.0159°N, 90.0546°W)
Time: 14:17:23
(UTC+00:00)

ARIANE 6 FM1 Upper Stage - Pass Details

Date: 26 January 2026
Orbit: 522 x 609 km, 62.0° (Epoch: 8 February)

Event Time Altitude Azimuth Distance (km) Brightness Sun altitude
Rises 23:53:52 0° 234° (SW) 2,720 7.8 -7.7°
Reaches altitude 10° 23:56:14 10° 243° (WSW) 1,815 6.9 -8.1°
Maximum altitude 00:00:00 35° 310° (NW) 877 4.0 -8.8°
Drops below altitude 10° 00:03:43 10° 18° (NNE) 1,785 4.9 -9.5°
Enters shadow 00:05:17 - 25° (NNE) 2,381 5.5 -9.8°
